Home   Weather   Freistadt   Past weeks

Flag for Austria Past Weather in Freistadt, Upper Austria, Austria — Yesterday and Last 2 Weeks

Now
19 °F

Cold.


Feels Like: 19 °F
Forecast: -1 / 22 °F
Wind: 2 mph from North

Location: Rohrbach

Current Time: Jan 20, 2017 at 4:58:26 am

Latest Report: Jan 20, 2017 at 4:00 am


Visibility: N/A

Pressure: 30.61 "Hg (28.47 "Hg at 565m altitude)

Humidity: 72%

Dew Point: 12 °F

Location of FreistadtLocation

Past Weather in Freistadt — Graph

°F

Freistadt Temperature Yesterday

Maximum temperature yesterday: 30 °F (at 2:00 pm)
Minimum temperature yesterday: 16 °F (at 4:00 am)
Average temperature yesterday: 21 °F

High & Low Weather Summary for the Past Weeks

 TemperatureHumidityPressure
High37 °F (Jan 13, 7:00 am)100% (Jan 13, 1:00 am)30.78 "Hg (Jan 13, 1:00 am)
Low-2 °F (Jan 7, 8:00 am)61% (Jan 19, 1:00 pm)29.44 "Hg (Jan 13, 6:00 am)
Average22 °F83%30.27 "Hg
* Reported Jan 5 3:00 am — Jan 20 3:00 am, Freistadt, Weather by CustomWeather, © 2017

Note: Actual official high and low records may vary slightly from our data, if they occured in-between our weather recording intervals... More about our weather records

Advertising

Freistadt Weather History for the Previous 24 Hours

Scroll right to see more
 ConditionsComfort  
Time TempWeatherWind HumidityBarometerVisibility
3:00 am
Fri, Jan 20
19 °FCold.1 mph72%30.62 "HgN/A
2:00 am19 °FCold.2 mph72%30.63 "HgN/A
1:00 am20 °FCold.3 mph71%30.63 "HgN/A
12:00 am21 °FCold.5 mph68%30.63 "HgN/A
11:00 pm
Thu, Jan 19
22 °FCold.3 mph68%30.63 "HgN/A
10:00 pm21 °FCold.2 mph69%30.63 "HgN/A
9:00 pm22 °FCold.3 mph67%30.63 "HgN/A
8:00 pm22 °FCold.3 mph66%30.63 "HgN/A
7:00 pm22 °FCold.3 mph66%30.63 "HgN/A
6:00 pm23 °FCold.1 mph66%30.62 "HgN/A
5:00 pm24 °FPassing clouds.9 mph64%30.60 "Hg3 mi
4:00 pm27 °FChilly.2 mph64%30.59 "HgN/A
3:00 pm28 °FChilly.2 mph65%30.58 "HgN/A
2:00 pm30 °FChilly.3 mph62%30.57 "HgN/A
1:00 pm29 °FChilly.2 mph61%30.58 "HgN/A
12:00 pm26 °FChilly.2 mph64%30.61 "HgN/A
11:00 am23 °FCold.5 mph68%30.64 "HgN/A
10:00 am21 °FCold.5 mph71%30.66 "HgN/A
9:00 am18 °FCold.3 mph76%30.66 "HgN/A
8:00 am16 °FCold.5 mph79%30.66 "HgN/A
7:00 am17 °FPassing clouds.14 mph79%30.65 "Hg3 mi
6:00 am16 °FCold.5 mph80%30.64 "HgN/A
5:00 am16 °FCold.5 mph82%30.66 "HgN/A
4:00 am16 °FPassing clouds.6 mph82%30.66 "Hg2 mi
Weather by CustomWeather, © 2017

See weather overviewHow to use our weather pages